FW7233 Weather Reports


time (UTC)temp
C
wind
direction
speed
KPH
gust
KPH
rain 1hr
cm
rain 24hr
cm
rain mn
cm
humidity
%
barometer
mb
20260508063635 8 197 0.0 4.8 0.00 0.00 0.00 99 1018.0
20260508062636 8 143 0.0 3.2 0.00 0.00 0.00 99 1018.1
20260508060637 8 140 0.0 3.2 0.00 0.08 0.00 99 1017.8
20260508055635 7 169 0.0 1.6 0.00 0.08 0.00 99 1017.7
20260508054635 7 153 1.6 3.2 0.00 0.08 0.00 99 1017.8
20260508053635 7 144 0.0 3.2 0.00 0.08 0.00 99 1017.5
20260508052635 7 166 1.6 4.8 0.00 0.08 0.00 99 1017.9
20260508050635 7 71 0.0 3.2 0.00 0.08 0.00 98 1017.8
20260508045637 7 120 0.0 3.2 0.00 0.08 0.00 98 1017.7
20260508044638 7 167 0.0 1.6 0.00 0.08 0.00 98 1017.7
20260508043637 7 146 0.0 1.6 0.00 0.08 0.00 98 1017.7
20260508035648 7 135 0.0 1.6 0.00 0.08 0.00 98 1017.1
20260508034636 7 134 0.0 1.6 0.00 0.08 0.00 98 1017.1
20260508033635 7 149 0.0 1.6 0.00 0.08 0.00 98 1017.0
20260508032638 7 134 0.0 0.0 0.00 0.10 0.00 98 1016.8
20260508030635 7 136 0.0 1.6 0.00 0.10 0.00 98 1016.7
20260508024637 7 142 0.0 0.0 0.00 0.13 0.00 97 1016.7
20260508023635 7 136 0.0 1.6 0.00 0.13 0.00 97 1016.8
20260508021635 7 132 0.0 1.6 0.00 0.13 0.00 97 1016.7
20260508020635 7 138 0.0 1.6 0.00 0.13 0.00 96 1016.9
20260508015637 7 93 0.0 1.6 0.00 0.13 0.00 96 1016.8
20260508012635 7 336 1.6 3.2 0.00 0.13 0.00 95 1016.6
20260508011635 7 128 0.0 1.6 0.00 0.13 0.00 95 1016.8
20260508010636 8 137 0.0 3.2 0.00 0.13 0.00 94 1017.3
20260508005636 8 45 1.6 1.6 0.00 0.13 0.00 94 1017.1
20260508004634 8 32 1.6 4.8 0.00 0.13 0.00 93 1017.1
20260508003634 8 67 0.0 3.2 0.00 0.13 0.00 93 1016.7
20260508000637 8 144 0.0 4.8 0.00 0.13 0.00 94 1016.8
20260507235635 8 143 0.0 4.8 0.00 0.13 0.00 94 1016.8
20260507234634 8 136 0.0 3.2 0.00 0.13 0.00 94 1016.9
20260507233637 8 141 0.0 3.2 0.00 0.13 0.00 94 1016.9
20260507232634 8 128 0.0 3.2 0.00 0.15 0.00 95 1016.3
20260507230634 8 137 0.0 3.2 0.00 0.25 0.00 95 1016.4
20260507225636 8 116 0.0 1.6 0.00 0.36 0.00 95 1016.3
20260507224636 8 121 0.0 1.6 0.00 0.38 0.00 95 1016.4
20260507223635 8 134 0.0 1.6 0.00 0.43 0.00 95 1016.7
20260507220634 8 119 0.0 3.2 0.00 0.46 0.00 96 1016.4
20260507215636 8 138 0.0 1.6 0.00 0.46 0.46 97 1016.2
20260507214634 8 132 0.0 3.2 0.00 0.46 0.46 97 1016.3
20260507213634 9 133 0.0 0.0 0.00 0.46 0.46 97 1016.0
20260507212635 9 134 0.0 0.0 0.00 0.48 0.46 97 1016.3
20260507210636 9 133 0.0 0.0 0.00 0.48 0.46 97 1016.1
20260507204636 9 135 0.0 1.6 0.00 0.58 0.46 97 1016.0
20260507202637 9 82 0.0 3.2 0.00 0.71 0.46 97 1015.7
20260507201636 9 130 0.0 1.6 0.00 0.71 0.46 97 1015.9
20260507200647 9 149 0.0 1.6 0.00 0.71 0.46 97 1015.9
20260507195636 9 143 0.0 3.2 0.00 0.71 0.46 97 1015.7
20260507194634 9 151 0.0 3.2 0.00 0.71 0.46 97 1015.6
20260507193635 9 137 0.0 0.0 0.00 0.71 0.46 97 1015.7
20260507191636 9 132 0.0 1.6 0.00 0.71 0.46 97 1015.4
20260507190635 9 138 0.0 0.0 0.00 0.71 0.46 97 1015.3
20260507185634 10 136 0.0 1.6 0.00 0.71 0.46 96 1015.2
20260507183634 10 136 0.0 0.0 0.00 0.71 0.46 96 1015.2
20260507182635 10 149 0.0 1.6 0.00 0.71 0.46 96 1014.7
20260507181633 10 68 1.6 4.8 0.00 0.71 0.46 96 1014.8
20260507180637 10 136 0.0 1.6 0.00 0.71 0.46 96 1014.8
20260507174636 10 133 0.0 1.6 0.00 0.71 0.46 96 1014.4
20260507173634 10 130 0.0 3.2 0.00 0.71 0.46 96 1014.7
20260507172633 10 142 0.0 1.6 0.00 0.71 0.46 95 1014.3
20260507171637 10 142 0.0 0.0 0.00 0.71 0.46 95 1014.4
20260507170635 10 142 1.6 1.6 0.00 0.71 0.46 95 1014.1
20260507165635 10 141 0.0 1.6 0.00 0.71 0.46 95 1014.0
20260507164636 10 120 0.0 3.2 0.00 0.71 0.46 95 1013.9
20260507163636 10 127 0.0 4.8 0.00 0.71 0.46 95 1013.9
20260507162634 10 61 3.2 4.8 0.00 0.71 0.46 94 1013.5
20260507161635 10 142 1.6 3.2 0.00 0.71 0.46 94 1013.3
20260507160637 10 54 0.0 4.8 0.00 0.71 0.46 94 1013.7
20260507155635 11 133 0.0 3.2 0.00 0.71 0.46 94 1013.3
20260507154636 11 69 1.6 4.8 0.00 0.71 0.46 93 1013.7
20260507152648 11 136 0.0 3.2 0.00 0.71 0.46 92 1013.2
20260507151634 11 113 0.0 6.4 0.00 0.71 0.46 92 1013.6
20260507145634 11 113 1.6 6.4 0.00 0.71 0.46 92 1013.5
20260507144634 12 350 3.2 6.4 0.00 0.71 0.46 91 1013.2
20260507143634 12 323 1.6 4.8 0.00 0.71 0.46 91 1013.2
20260507142635 12 128 1.6 4.8 0.00 0.71 0.46 92 1013.3
20260507141635 12 132 1.6 6.4 0.00 0.71 0.46 92 1013.4
20260507135635 12 164 1.6 3.2 0.00 0.71 0.46 91 1013.7
20260507133636 12 74 1.6 4.8 0.00 0.71 0.46 91 1013.4
20260507132638 13 129 0.0 4.8 0.00 0.71 0.46 90 1013.2
20260507131634 13 4 1.6 3.2 0.00 0.71 0.46 90 1013.1
20260507130634 13 64 0.0 3.2 0.00 0.71 0.46 90 1013.0
20260507125635 13 137 0.0 3.2 0.00 0.71 0.46 90 1012.8
20260507124648 14 138 0.0 3.2 0.00 0.71 0.46 89 1013.1
20260507123633 14 150 0.0 1.6 0.00 0.71 0.46 90 1012.9
20260507121636 13 140 0.0 4.8 0.00 0.71 0.46 91 1012.9
20260507120636 13 115 0.0 3.2 0.00 0.71 0.46 92 1012.7
20260507115633 13 117 1.6 4.8 0.00 0.71 0.46 92 1012.9
20260507114634 12 133 0.0 1.6 0.00 0.71 0.46 93 1013.0
20260507113636 12 130 0.0 1.6 0.00 0.71 0.46 92 1013.1
20260507112635 12 127 0.0 1.6 0.00 0.71 0.46 92 1012.8
20260507111635 13 118 0.0 3.2 0.00 0.71 0.46 91 1012.5
20260507110634 13 88 0.0 1.6 0.00 0.71 0.46 93 1012.6
20260507105635 12 158 0.0 4.8 0.00 0.71 0.46 96 1012.6
20260507103638 12 122 0.0 1.6 0.00 0.71 0.46 99 1012.5
20260507102635 11 126 0.0 3.2 0.00 0.71 0.46 99 1012.5
20260507101636 11 117 0.0 1.6 0.00 0.71 0.46 99 1012.3
20260507100634 11 138 0.0 1.6 0.00 0.71 0.46 99 1012.1
20260507093636 11 95 0.0 3.2 0.00 0.71 0.46 99 1011.9
20260507092635 11 138 0.0 1.6 0.00 0.71 0.46 99 1011.6
20260507091637 10 143 0.0 1.6 0.00 0.71 0.46 99 1011.9
20260507085637 10 23 1.6 3.2 0.00 0.71 0.46 99 1011.4
20260507083647 10 140 0.0 1.6 0.00 0.71 0.46 99 1011.2
20260507082634 10 114 0.0 3.2 0.00 0.71 0.46 99 1011.1
20260507081634 10 136 0.0 3.2 0.00 0.71 0.46 99 1011.1
20260507080635 10 109 0.0 3.2 0.00 0.71 0.46 99 1011.2
20260507074634 10 119 0.0 3.2 0.00 0.71 0.46 99 1011.1
20260507073634 10 37 0.0 3.2 0.00 0.71 0.46 99 1010.8
20260507072633 10 140 0.0 4.8 0.00 0.71 0.46 99 1010.7
20260507065648 10 153 0.0 3.2 0.08 0.64 0.46 99 1010.4